Location: Bratislava
(0.0000°N, 17.1167°E)
Time: 04:16:31
(UTC+01:00)

Cosmos 2369 Rocket - Pass Details

Date: 24 January 2021
Orbit: 830 x 851 km, 71.0° (Epoch: 06 March)

Event Time Altitude Azimuth Distance (km) Brightness Sun altitude
Rises 19:42:46 0° 188° (S) 3,413 5.7 -23.3°
Reaches altitude 10° 19:45:16 10° 185° (S) 2,475 4.9 -23.9°
Enters shadow 19:50:49 60° 108° (ESE) 961 2.2 -25.2°
